EA1M Weather Reports


Display with metric or nautical units.
time (UTC)temp
F
wind
direction
speed
MPH
gust
MPH
rain 1hr
in
rain 24hr
in
rain mn
in
humidity
%
barometer
mb
20260831080056 62 142 3.0 4.0 0.00 0.00 0.00 87 1024.5
20260831075100 62 115 2.0 4.0 0.00 0.00 0.00 88 1024.5
20260831074101 61 108 2.0 4.0 0.00 0.00 0.00 88 1024.4
20260831073104 61 113 3.0 4.0 0.00 0.00 0.00 89 1024.3
20260831072148 61 134 3.0 7.0 0.00 0.00 0.00 89 1024.2
20260831071028 61 121 3.0 6.0 0.00 0.00 0.00 90 1024.2
20260831070052 61 134 3.0 6.0 0.00 0.00 0.00 90 1023.9
20260831065116 60 130 3.0 4.0 0.00 0.00 0.00 90 1023.9
20260831064037 60 110 2.0 4.0 0.00 0.00 0.00 91 1023.8
20260831063100 60 119 2.0 4.0 0.00 0.00 0.00 91 1023.7
20260831062021 60 128 3.0 6.0 0.00 0.00 0.00 91 1023.6
20260831061044 60 139 3.0 6.0 0.00 0.00 0.00 91 1023.6
20260831060149 60 111 4.0 7.0 0.00 0.00 0.00 92 1023.7
20260831055028 59 132 4.0 7.0 0.00 0.00 0.00 92 1023.6
20260831054052 59 142 4.0 6.0 0.00 0.00 0.00 92 1023.5
20260831053137 59 123 4.0 8.0 0.00 0.00 0.00 91 1023.5
20260831052036 59 138 4.0 6.0 0.00 0.00 0.00 91 1023.4
20260831051100 59 123 2.0 4.0 0.00 0.00 0.00 91 1023.3
20260831050020 59 124 3.0 4.0 0.00 0.00 0.00 91 1023.4
20260831045105 59 126 3.0 4.0 0.00 0.00 0.00 91 1023.3
20260831044108 59 107 2.0 3.0 0.00 0.00 0.00 91 1023.4
20260831043029 59 101 3.0 4.0 0.00 0.00 0.00 91 1023.3
20260831042052 59 108 2.0 4.0 0.00 0.00 0.00 92 1023.2
20260831041117 59 110 2.0 4.0 0.00 0.00 0.00 92 1023.4
20260831040036 59 107 2.0 3.0 0.00 0.00 0.00 92 1023.3
20260831035100 59 122 3.0 3.0 0.00 0.00 0.00 91 1023.3
20260831034020 59 99 2.0 3.0 0.00 0.00 0.00 91 1023.4
20260831033043 59 105 2.0 3.0 0.00 0.00 0.00 91 1023.4
20260831032109 59 89 1.0 2.0 0.00 0.00 0.00 91 1023.4
20260831031029 59 90 2.0 3.0 0.00 0.00 0.00 91 1023.5
20260831030052 59 94 1.0 3.0 0.00 0.00 0.00 90 1023.4
20260831025116 60 92 2.0 3.0 0.00 0.00 0.00 90 1023.4
20260831024036 60 91 2.0 3.0 0.00 0.00 0.00 90 1023.4
20260831023100 60 124 2.0 3.0 0.00 0.00 0.00 89 1023.4
20260831022020 60 101 2.0 3.0 0.00 0.00 0.00 89 1023.5
20260831021043 60 103 1.0 3.0 0.00 0.00 0.00 88 1023.4
20260831020109 61 108 2.0 3.0 0.00 0.00 0.00 88 1023.4
20260831015029 61 93 1.0 3.0 0.00 0.00 0.00 88 1023.3
20260831014112 61 99 2.0 3.0 0.00 0.00 0.00 87 1023.2
20260831013236 61 110 2.0 3.0 0.00 0.00 0.00 87 1023.3
20260831012037 61 88 1.0 2.0 0.00 0.00 0.00 87 1023.3
20260831011119 62 90 1.0 2.0 0.00 0.00 0.00 86 1023.3
20260831010030 62 107 2.0 3.0 0.00 0.00 0.00 86 1023.2
20260831005044 62 121 3.0 4.0 0.00 0.00 0.00 86 1023.3
20260831004108 62 120 2.0 3.0 0.00 0.00 0.00 85 1023.4
20260831003027 62 86 1.0 3.0 0.00 0.00 0.00 84 1023.5
20260831002112 63 119 2.0 3.0 0.00 0.00 0.00 84 1023.5
20260831001116 63 131 3.0 4.0 0.00 0.00 0.00 83 1023.4
20260831000036 63 100 2.0 3.0 0.00 0.00 0.00 82 1023.4
20260830235101 63 102 2.0 3.0 0.00 0.00 0.00 82 1023.5
20260830234020 64 113 2.0 3.0 0.00 0.00 0.00 81 1023.6
20260830233045 64 108 2.0 6.0 0.00 0.00 0.00 80 1023.6
20260830232109 64 120 2.0 4.0 0.00 0.00 0.00 81 1023.6
20260830231029 63 90 1.0 4.0 0.00 0.00 0.00 80 1023.7
20260830230052 63 104 2.0 4.0 0.00 0.00 0.00 80 1023.7
20260830225116 64 119 2.0 4.0 0.00 0.00 0.00 79 1023.7
20260830224036 63 125 3.0 7.0 0.00 0.00 0.00 79 1023.6
20260830223100 63 126 3.0 4.0 0.00 0.00 0.00 80 1023.6
20260830222020 63 109 2.0 3.0 0.00 0.00 0.00 80 1023.6
20260830221044 64 114 2.0 3.0 0.00 0.00 0.00 80 1023.7
20260830220108 64 108 2.0 4.0 0.00 0.00 0.00 78 1023.6
20260830215028 64 131 3.0 4.0 0.00 0.00 0.00 77 1023.6
20260830214052 64 101 2.0 3.0 0.00 0.00 0.00 77 1023.5
20260830213116 65 110 2.0 3.0 0.00 0.00 0.00 76 1023.5
20260830212036 65 101 2.0 2.0 0.00 0.00 0.00 75 1023.4
20260830211100 66 80 1.0 2.0 0.00 0.00 0.00 75 1023.4
20260830210100 66 86 1.0 2.0 0.00 0.00 0.00 74 1023.4
20260830205044 66 79 1.0 2.0 0.00 0.00 0.00 74 1023.2
20260830204128 66 81 1.0 1.0 0.00 0.00 0.00 74 1023.1
20260830203029 67 74 1.0 2.0 0.00 0.00 0.00 74 1023.0
20260830202052 67 81 1.0 2.0 0.00 0.00 0.00 74 1022.9
20260830201116 67 114 2.0 3.0 0.00 0.00 0.00 73 1022.7
20260830200035 67 41 2.0 4.0 0.00 0.00 0.00 73 1022.5
20260830195059 67 106 2.0 4.0 0.00 0.00 0.00 73 1022.5
20260830194019 67 36 2.0 4.0 0.00 0.00 0.00 74 1022.3
20260830193104 68 219 3.0 6.0 0.00 0.00 0.00 72 1022.3
20260830192108 68 295 3.0 6.0 0.00 0.00 0.00 71 1022.2
20260830191028 68 266 4.0 7.0 0.00 0.00 0.00 70 1022.1
20260830190051 69 266 4.0 9.0 0.00 0.00 0.00 69 1021.9
20260830185116 69 337 3.0 8.0 0.00 0.00 0.00 69 1022.1
20260830184036 70 269 6.0 9.0 0.00 0.00 0.00 68 1022.0
20260830183100 70 263 6.0 14.0 0.00 0.00 0.00 68 1021.9
20260830182020 70 290 7.0 14.0 0.00 0.00 0.00 68 1021.9
20260830181043 71 283 5.0 11.0 0.00 0.00 0.00 67 1021.8
20260830180109 71 286 6.0 14.0 0.00 0.00 0.00 68 1021.7
20260830175029 71 299 8.0 14.0 0.00 0.00 0.00 68 1021.7
20260830174052 71 257 6.0 11.0 0.00 0.00 0.00 67 1021.7
20260830173115 71 275 7.0 14.0 0.00 0.00 0.00 66 1021.6
20260830172036 71 311 7.0 13.0 0.00 0.00 0.00 66 1021.5
20260830171059 71 293 8.0 15.0 0.00 0.00 0.00 66 1021.4
20260830170020 72 268 8.0 15.0 0.00 0.00 0.00 65 1021.3
20260830165044 72 267 7.0 14.0 0.00 0.00 0.00 64 1021.2
20260830164108 72 287 7.0 15.0 0.00 0.00 0.00 65 1021.2
20260830163028 72 281 6.0 14.0 0.00 0.00 0.00 64 1021.1
20260830162052 72 289 7.0 14.0 0.00 0.00 0.00 64 1021.0
20260830161137 72 290 9.0 14.0 0.00 0.00 0.00 64 1021.1
20260830160036 72 260 9.0 15.0 0.00 0.00 0.00 64 1021.0
20260830155100 73 268 7.0 14.0 0.00 0.00 0.00 62 1021.1
20260830154020 72 273 7.0 14.0 0.00 0.00 0.00 63 1021.0
20260830153043 73 267 8.0 15.0 0.00 0.00 0.00 63 1021.0
20260830152108 74 305 8.0 15.0 0.00 0.00 0.00 62 1021.0
20260830151029 73 281 8.0 13.0 0.00 0.00 0.00 61 1020.9
20260830150053 73 279 7.0 15.0 0.00 0.00 0.00 61 1020.8
20260830145117 73 295 6.0 11.0 0.00 0.00 0.00 61 1021.0
20260830144036 73 308 6.0 16.0 0.00 0.00 0.00 61 1020.9
20260830143100 73 290 7.0 13.0 0.00 0.00 0.00 61 1021.0
20260830142020 73 285 8.0 13.0 0.00 0.00 0.00 62 1020.9
20260830141104 72 329 6.0 14.0 0.00 0.00 0.00 63 1020.9
20260830140108 72 335 8.0 14.0 0.00 0.00 0.00 62 1021.0
20260830135028 73 320 6.0 13.0 0.00 0.00 0.00 62 1021.0
20260830134052 73 289 7.0 15.0 0.00 0.00 0.00 61 1021.0
20260830133138 74 351 4.0 10.0 0.00 0.00 0.00 62 1020.9
20260830132036 73 316 6.0 10.0 0.00 0.00 0.00 61 1021.0
20260830131101 73 321 6.0 13.0 0.00 0.00 0.00 62 1021.1
20260830130020 73 323 5.0 11.0 0.00 0.00 0.00 61 1021.2
20260830125044 74 310 5.0 10.0 0.00 0.00 0.00 60 1021.3
20260830124109 73 315 5.0 11.0 0.00 0.00 0.00 59 1021.2
20260830123028 74 310 5.0 13.0 0.00 0.00 0.00 58 1021.3
20260830122053 74 318 5.0 9.0 0.00 0.00 0.00 58 1021.2
20260830121116 73 286 4.0 8.0 0.00 0.00 0.00 60 1021.3
20260830120056 74 160 4.0 9.0 0.00 0.00 0.00 58 1021.2
20260830115100 72 216 6.0 10.0 0.00 0.00 0.00 61 1021.4
20260830114020 72 248 4.0 7.0 0.00 0.00 0.00 62 1021.3
20260830113044 71 253 4.0 8.0 0.00 0.00 0.00 64 1021.4
20260830112108 71 243 6.0 11.0 0.00 0.00 0.00 64 1021.4
20260830111029 71 202 4.0 11.0 0.00 0.00 0.00 65 1021.3
20260830110052 72 146 3.0 9.0 0.00 0.00 0.00 65 1021.3
20260830105116 71 274 4.0 7.0 0.00 0.00 0.00 65 1021.4
20260830104036 70 356 4.0 10.0 0.00 0.00 0.00 66 1021.4
20260830103101 70 280 4.0 8.0 0.00 0.00 0.00 68 1021.4
20260830102040 70 227 6.0 10.0 0.00 0.00 0.00 67 1021.3
20260830101044 69 216 6.0 13.0 0.00 0.00 0.00 66 1021.3
20260830100108 69 53 3.0 7.0 0.00 0.00 0.00 69 1021.1
20260830095028 70 252 5.0 9.0 0.00 0.00 0.00 69 1021.2
20260830094051 69 201 4.0 9.0 0.00 0.00 0.00 69 1021.1
20260830093116 69 267 5.0 10.0 0.00 0.00 0.00 70 1021.3
20260830092056 68 328 5.0 10.0 0.00 0.00 0.00 70 1021.0
20260830091100 68 224 6.0 15.0 0.00 0.00 0.00 69 1021.1
20260830090040 67 217 4.0 8.0 0.00 0.00 0.00 69 1021.0
20260830085104 67 171 5.0 13.0 0.00 0.00 0.00 69 1021.0
20260830084108 68 216 3.0 6.0 0.00 0.00 0.00 71 1020.8
20260830083028 67 149 3.0 8.0 0.00 0.00 0.00 70 1020.7
20260830082051 66 92 2.0 6.0 0.00 0.00 0.00 75 1020.6
20260830081116 66 146 3.0 6.0 0.00 0.00 0.00 81 1020.5